星链-33655 (STARLINK-33655)

导读

STARLINK-33655是美国于2025年3月31日发射的SpaceX星链卫星,星链项目旨在构建全球卫星互联网星座,为全球用户提供高速低延迟的宽带网络服务。该卫星的发射进一步扩充了星链星座的在轨卫星数量,有助于提升星座网络的覆盖范围与服务能力,推动全球互联网络布局完善。

Basic Information
目录编号:
63424
目录名称:
STARLINK-33655
国际标识:
2025-065AB
轨道中心:
EARTH
卫星名称:
星链-33655
卫星全名:
星链-33655 (STARLINK-33655)
卫星状态:
在轨 (已飞行440 天)
发射日期:
2025-03-31 UTC
国别 :
美国 (US)
星等 :
--
Orbit Information
数据来源 国际轨道数据 AOE轨道数据
星历时间 2026-06-13T22:24:23+0800
17小时前
查看轨道信息
2026-06-09T06:00:00+0800
5天前
查看轨道信息
半长轴 6861.151km 6861.08km
偏心率 0.0001462 0.000205
轨道倾角 43.005° 43.002°
近地点辐角 268.458° 286.088°
升交点赤经 285.756° 312.208°
平近点角 91.610° 207.413°
近地点 482.01km 481.536km
远地点 484.018km 484.35km
周期 94.266分钟 94.265分钟
每日圈数 15.275918 15.276155
Detailed Information
固有亮度:
5
最大亮度:
2.5
卫星平台:
Starlink V1.0
覆盖范围:
全球
运营商:
太空探索技术公司
运营商所在国:
美国
制造商(研发单位):
太空探索技术公司
制造商所在国:
美国
使用方式:
暂无
Satellite Introduction
Starlink 计划是 SpaceX 推出的全球卫星互联网项目,通过发射低轨道卫星,为全球尤其是偏远地区提供高速、低延迟的互联网服务。自 2019 年起,Starlink 已部署数千颗卫星,旨在缩小全球数字鸿沟,推动互联网普及。该项目还为军事、航空等行业提供通信支持,带来广泛经济效益。
2D Orbit Map
3D Orbit Map
Orbit Altitude Analysis Chart
Orbit Inclination Analysis Chart
Orbit Comprehensive Analysis Chart
View Comprehensive Chart